Flag for Germany Weather past 2 weeks in Lampertheim, Hesse, Germany

Now
59 °F

Sunny.


Feels Like: 58 °F
Forecast: 40 / 63 °F
Wind: 8 mph from East

Location: Baden Wurttemberg - Neuostheim

Current Time: Apr 19, 2015 at 9:40:28 PM

Latest Report: Apr 19, 2015 at 8:20 PM


Visibility: 10 mi

Pressure: 30.12 "Hg

Humidity: 29%

Dew point: 27 °F

Location of LampertheimLocation

Historic Weather in Lampertheim — Graph

°F

Lampertheim temperature yesterday

Maximum temperature yesterday: 57 °F (at 3:50 PM)
Minimum temperature yesterday: 41 °F (at 7:50 AM)
Average temperature yesterday: 53 °F

Past Weeks' High & Low Weather Summary

 TemperatureHumidityPressure
High79 °F (Apr 15, 4:20 PM)93% (Apr 9, 7:20 AM)30.63 "Hg (Apr 9, 7:20 AM)
Low30 °F (Apr 7, 6:50 AM)19% (Apr 15, 8:20 PM)29.86 "Hg (Apr 16, 5:20 PM)
Average56 °F49%30.25 "Hg
* Reported Apr 4 8:20 PM — Apr 19 8:20 PM, Lampertheim, Weather by CustomWeather, © 2015

Note: Actual official high and low records may vary slightly from our data, if they occured in-between our weather recording intervals... More about our weather records

Advertising

Lampertheim weather history for previous 24 hours

 ConditionsComfort  
Time TempWeatherWind HumidityBarometerVisibility
8:20 PM
Sun, Apr 19
59 °FSunny.8 mph29%30.12 "Hg10 mi
7:50 PM61 °FSunny.8 mph29%30.09 "Hg10 mi
7:20 PM63 °FSunny.9 mph25%30.09 "Hg10 mi
6:50 PM63 °FSunny.8 mph25%30.09 "Hg10 mi
6:20 PM64 °FPassing clouds.8 mph24%30.09 "HgN/A
5:50 PM64 °FPassing clouds.9 mph24%30.07 "HgN/A
5:20 PM64 °FPassing clouds.8 mph22%30.07 "HgN/A
4:50 PM64 °FPassing clouds.6 mph24%30.07 "HgN/A
4:20 PM64 °FPassing clouds.6 mph24%30.09 "HgN/A
3:50 PM63 °FMild.7 mph24%30.09 "HgN/A
3:20 PM63 °FPassing clouds.7 mph24%30.09 "HgN/A
2:50 PM63 °FPassing clouds.7 mph24%30.09 "HgN/A
2:20 PM63 °FSunny.6 mph25%30.09 "Hg10 mi
1:50 PM61 °FPassing clouds.7 mph25%30.12 "HgN/A
1:20 PM59 °FPassing clouds.5 mph27%30.12 "HgN/A
12:50 PM57 °FPassing clouds.5 mph29%30.12 "HgN/A
12:20 PM57 °FPassing clouds.5 mph27%30.12 "HgN/A
11:50 AM55 °FPassing clouds.8 mph33%30.15 "HgN/A
11:20 AM55 °FSunny.6 mph31%30.15 "Hg10 mi
10:50 AM55 °FPassing clouds.8 mph33%30.15 "HgN/A
10:20 AM54 °FPassing clouds.9 mph33%30.15 "HgN/A
9:50 AM52 °FPassing clouds.6 mph38%30.15 "HgN/A
9:20 AM50 °FSunny.3 mph40%30.15 "Hg10 mi
8:50 AM46 °FSunny.2 mph53%30.15 "Hg10 mi
8:20 AM45 °FSunny.3 mph57%30.15 "Hg10 mi
7:50 AM43 °FSunny.3 mph57%30.15 "Hg10 mi
7:20 AM41 °FClear.5 mph61%30.15 "Hg10 mi
Weather by CustomWeather, © 2015

See weather overviewHow to use our weather pages